Погода в Чечхоне

Южная Корея     37°07′48″N   128°12′22″E
темп.,
°C
ветер,
м/с
пор.,
м/с
влажн.,
%
обл.,
%
осадки,
мм/ч
давл.,
гПа
погр.,
м
14 июня, пн
пн1400:00+18всв1189100 0.0 100811
03:00+16ссв1194100 0.0 100811
06:00+17всв1192100 0.0 100735
09:00+23вюв1169100 0.0 1007486
12:00+27юв1154100 0.0 10061352
15:00+29ююв1141100 0.0 10041921
18:00+26ююз2362100 0.0 1003149
21:00+20юв1183100 0.1 100511
15 июня, вт
вт1500:00+18в1196100 0.0 100625
03:00+16в1198100 0.0 100521
06:00+17в1197100 0.0 100660
09:00+19всв1285100 0.0 1005348
12:00+22в2471100 0.1 1005960
15:00+19вюв1189100 1.1 100522
18:00+20вюв129163 0.3 1005104
21:00+17в2296100 0.6 100672
16 июня, ср
ср1600:00+16всв2499100 0.4 1006146
03:00+16всв129898 0.9 100583
06:00+16св399639 0.0 1006356
09:00+21всв596923 0.0 10061001
12:00+23всв685952 0.0 10061321
15:00+23в6857100 0.0 10051235
18:00+20всв597357 0.0 1006776
21:00+16всв388817 0.0 1007420
17 июня, чт
чт1700:00+14св119676 0.0 100822
03:00+13всв119773 0.0 100715
06:00+13всв1296100 0.0 100762
09:00+19вюв247069 0.0 1006526
12:00+25ююв354457 0.0 10041366
15:00+26ю3443100 0.0 10031716
18:00+22ююв2464100 0.0 1003216
21:00+18ююв1174100 0.0 100311
18 июня, пт
пт1800:00+17ююв1180100 0.0 100315
03:00+16ююв0181100 0.0 100111
06:00+15с0095100 0.7 100114
09:00+15ю1198100 1.8 100183
12:00+17ююз129699 0.1 1000356
15:00+20зюз247863 0.3 998843
18:00+21з48704 0.3 9981143
21:00+15зюз23986 0.4 99965